Wind_Speed
10 7 6 5 6 7 8 8 10 10 10 11 10 10 9 8 7 6 5 4 4 4 5 6 6 7 7 8 10 11 12 13 14 15 15 16 16 16 17 17 17 17 17 16 15 15 14 13 12 12 11 11 10 10 11 10 10 10 11 13 14 13 12 12 9 9 10 12 17 17 16 17 16 15 14 14 14 14 14 15 16 16 17 16 15 15 15 15
7 5 4 4 5 7 7 9 10 10 10 9 8 8 7 6 5 4 4 4 5 6 7 8 9 10 10 11 12 13 14 15 16 16 16 17 17 17 17 17 17 16 16 15 15 15 15 14 14 13 12 12 12 12 12 12 12 11 11 13 14 13 15 17 16 16 15 14 18 18 16 17 17 17 16 16 16 15 15 15 15 16 17 16 16 16 16 15
8 7 6 6 7 8 9 9 9 8 8 7 6 5 5 4 4 5 6 7 8 9 10 11 12 13 13 13 14 15 15 15 16 16 16 17 17 16 16 15 15 14 14 14 14 14 14 15 15 14 14 13 14 15 13 15 14 12 13 13 14 15 18 21 21 21 18 18 20 19 17 17 18 17 17 17 17 17 18 17 17 17 17 16 17 17 16 16
8 8 8 8 9 10 9 8 7 6 5 4 4 4 5 5 6 8 9 11 12 13 14 14 14 14 14 14 14 14 14 14 13 12 13 14 13 13 14 14 14 14 14 13 13 13 12 14 14 14 14 12 15 16 14 16 14 13 16 16 17 18 19 23 22 21 19 18 19 18 18 18 17 17 17 19 19 21 21 19 18 17 16 16 17 17 17 17
9 8 9 9 9 8 7 6 5 4 3 3 4 5 7 8 9 11 13 14 14 15 14 13 13 13 12 12 12 11 9 9 9 9 10 11 11 12 13 13 12 12 12 12 11 12 11 11 11 12 12 10 14 15 13 17 15 14 19 19 21 21 21 24 22 20 19 18 19 20 20 19 19 19 20 20 20 23 22 20 19 18 17 17 17 18 18 19
10 9 9 8 7 6 4 3 3 3 4 5 6 8 9 11 12 14 14 14 13 12 10 9 9 9 9 9 9 8 6 6 8 10 10 10 9 10 10 11 10 10 10 10 10 10 10 10 10 10 10 10 12 13 13 17 15 14 19 21 21 21 22 23 21 21 20 20 21 20 20 20 20 21 21 21 22 23 23 21 22 20 19 18 18 19 20 21
10 9 8 6 5 3 2 2 3 4 6 7 9 10 12 13 14 14 12 10 9 7 6 6 7 8 8 8 7 7 7 8 10 11 9 8 8 9 10 10 10 10 10 10 10 10 10 9 10 10 10 10 11 13 14 16 14 13 19 23 21 20 21 22 21 22 21 21 21 20 21 21 21 22 22 22 22 23 23 22 22 21 21 21 21 22 22 23
8 7 5 3 2 3 4 4 6 7 9 10 11 12 13 13 12 10 8 6 6 5 5 6 7 7 7 7 7 7 7 8 10 9 8 8 9 10 11 11 10 11 10 10 10 9 9 9 10 11 10 11 13 15 15 14 15 15 19 22 20 20 21 21 21 21 21 21 21 21 22 21 21 22 22 22 22 21 22 22 22 22 22 22 23 23 24 24
5 3 2 2 3 5 6 7 9 11 12 13 14 14 13 11 8 6 5 5 5 5 5 6 6 7 6 6 6 7 7 8 9 9 10 11 11 11 11 11 10 11 10 10 9 8 9 9 10 10 11 13 14 15 14 12 14 17 19 19 19 20 20 20 21 20 21 21 20 21 21 21 21 21 23 22 21 21 21 22 22 22 23 23 24 24 25 25
3 1 1 3 5 7 9 11 13 14 15 15 14 13 11 7 5 5 5 6 6 5 5 6 6 6 7 7 7 7 7 8 9 11 12 12 12 12 11 11 10 10 10 9 8 8 8 8 9 9 11 13 14 14 15 14 16 18 18 18 18 19 20 20 20 20 20 20 21 21 21 21 21 22 24 22 21 22 22 23 23 24 24 25 25 26 26 26
1 1 3 5 7 9 11 13 14 15 15 14 11 9 6 3 4 6 7 7 6 6 6 6 6 7 7 8 8 8 8 8 11 13 12 11 11 11 10 10 9 9 9 8 8 8 8 9 9 9 10 12 12 13 14 15 16 17 18 18 19 19 19 20 20 20 20 21 21 21 23 24 23 24 24 21 20 21 22 23 23 24 24 25 25 25 25 26
3 4 5 7 9 10 11 11 11 11 10 8 6 3 1 2 4 7 7 7 6 6 6 6 6 7 8 9 9 9 9 9 12 14 11 10 9 8 9 9 9 8 8 8 8 8 8 9 9 9 9 11 12 12 12 13 14 15 15 17 18 18 20 20 20 20 20 21 21 21 22 22 19 19 18 17 18 19 20 21 21 22 23 23 24 24 24 24
5 6 6 7 7 7 8 8 7 7 6 5 2 1 1 3 5 7 7 6 5 5 4 5 5 7 8 9 9 10 9 9 11 12 10 9 8 8 9 9 9 8 8 8 8 8 8 8 9 9 10 11 11 11 12 13 13 13 14 15 15 15 17 19 18 19 19 19 19 19 17 16 15 15 17 18 18 19 19 20 20 21 22 22 23 23 24 24
6 5 5 5 4 5 6 7 7 6 5 4 2 1 2 4 7 8 8 6 5 4 3 4 5 7 9 9 10 10 10 10 10 9 9 9 10 10 9 9 8 7 8 8 8 8 7 8 8 8 9 10 10 11 13 13 12 13 14 14 12 10 14 17 17 18 19 18 17 17 15 15 18 20 20 20 18 19 20 20 21 22 23 23 24 25 25 25
4 4 4 3 3 4 5 6 6 5 4 3 2 3 4 6 8 8 7 5 4 3 4 5 7 9 10 9 10 11 12 12 11 10 10 10 10 10 9 9 8 8 7 7 7 7 7 7 7 8 8 8 9 9 10 11 12 12 12 10 8 8 12 17 19 19 18 18 16 16 13 12 18 22 21 21 21 21 22 23 23 24 24 25 24 24 24 24
3 4 3 3 3 3 3 4 4 4 4 4 4 5 7 8 8 8 6 5 4 3 4 6 7 9 8 8 9 11 12 12 11 11 11 10 10 10 10 9 8 8 8 7 7 7 7 7 7 7 8 7 7 6 7 9 10 9 8 8 8 7 10 14 17 18 17 18 18 18 17 15 21 26 24 24 25 23 24 24 23 24 23 23 23 23 22 22
2 3 3 3 3 3 3 3 4 5 5 6 6 7 8 8 7 6 5 4 4 5 5 5 7 8 7 8 10 10 10 11 10 11 10 9 9 10 9 9 9 8 8 8 8 8 8 7 7 7 6 6 5 4 6 8 6 5 5 7 10 9 10 12 15 18 18 19 19 19 23 23 24 29 26 24 25 24 23 23 23 23 23 22 22 21 21 21
2 3 4 4 4 5 4 4 4 5 6 7 7 8 7 6 6 5 5 5 5 5 5 6 8 6 6 9 11 10 9 9 9 9 9 9 9 9 9 9 9 9 10 9 9 9 8 8 7 4 4 7 6 3 6 7 6 7 8 9 10 10 10 10 14 18 19 20 20 20 24 25 22 28 29 24 24 26 24 23 24 23 23 22 22 21 21 21
2 3 4 5 6 6 6 5 5 5 6 6 6 6 5 5 5 5 5 4 5 5 5 6 7 5 6 10 11 9 9 8 8 8 9 8 9 9 9 9 9 9 9 8 8 9 8 7 4 1 6 10 8 5 8 10 10 12 14 12 11 12 11 12 17 20 20 22 22 20 23 24 22 26 30 26 23 24 23 22 23 22 22 21 21 21 20 20
2 4 4 6 7 7 7 7 6 6 5 5 5 5 4 4 4 5 4 3 4 5 5 5 6 6 7 10 10 9 9 7 7 8 9 8 9 10 9 9 10 9 8 6 8 10 7 5 4 7 10 9 8 7 8 10 11 11 12 10 11 12 11 15 21 20 19 20 19 19 23 24 23 22 26 27 21 20 20 19 19 19 19 19 18 18 17 17
2 3 4 6 7 8 8 8 7 6 5 4 4 3 3 2 2 3 2 2 3 3 5 6 6 7 8 10 10 10 9 8 7 8 9 9 10 9 8 9 8 8 10 9 9 10 6 5 8 8 8 8 8 8 8 8 9 9 8 9 9 10 11 16 20 18 17 20 20 20 24 25 21 17 20 22 17 15 16 15 16 15 15 16 15 15 15 15
2 3 4 6 8 9 9 8 7 5 4 3 3 2 2 1 2 2 2 2 2 3 6 8 8 8 9 9 9 10 10 9 10 11 11 11 11 9 9 10 8 7 10 9 6 7 6 6 7 7 7 7 7 6 7 7 7 6 6 8 8 10 14 16 18 19 19 22 21 20 25 24 16 11 14 15 12 11 13 12 12 13 13 12 12 13 14 14
2 3 4 6 8 9 9 8 6 5 4 3 3 2 2 1 2 1 1 1 2 4 8 10 9 9 10 9 9 10 9 8 10 11 10 10 9 8 8 8 7 8 8 6 4 3 5 7 7 6 6 6 6 6 7 8 6 5 7 8 8 11 15 13 17 22 21 21 19 20 26 19 8 9 13 12 11 10 11 11 10 11 11 10 11 11 12 12
3 3 4 6 8 9 10 8 6 5 4 4 3 3 2 2 1 1 1 2 2 5 8 10 9 8 10 9 9 11 8 7 10 10 9 8 7 7 7 7 7 7 7 6 4 2 4 7 7 6 6 6 8 8 9 9 5 10 12 10 10 14 15 14 19 22 21 18 15 20 25 13 6 15 16 11 11 10 11 10 9 10 10 10 11 10 11 12
4 3 4 6 8 9 9 8 6 5 4 4 3 3 3 2 2 1 1 2 3 6 8 9 8 7 10 9 10 11 7 6 10 9 8 7 7 7 7 7 7 7 7 6 5 4 4 6 6 7 7 8 9 8 9 8 5 10 14 13 14 16 16 17 18 18 16 12 12 18 15 6 10 18 15 11 10 10 11 10 9 10 11 10 10 10 11 12
5 4 4 6 8 10 9 7 6 5 5 4 4 4 2 2 2 1 2 3 3 6 9 9 7 7 10 10 10 9 5 7 10 8 8 8 8 8 8 8 8 7 8 7 6 5 7 7 7 7 8 10 9 8 10 9 7 7 12 15 16 15 16 17 15 14 11 9 15 17 6 8 17 16 13 13 10 10 11 11 10 11 11 11 10 11 12 13
6 5 5 6 8 10 8 7 6 5 5 4 4 4 3 2 2 1 3 3 4 6 8 8 8 8 9 9 9 8 6 8 10 9 9 9 9 9 8 9 10 8 7 8 4 5 8 8 7 8 9 9 5 8 11 10 8 7 12 15 15 15 16 16 15 11 10 13 18 15 5 10 16 14 15 16 11 10 11 11 13 13 12 12 11 12 13 14
6 5 5 7 9 10 8 6 5 5 4 4 4 3 3 2 1 2 2 3 2 4 6 7 8 8 9 10 9 9 8 8 10 9 9 10 10 10 8 10 10 7 8 8 3 6 9 8 8 9 9 6 5 9 11 10 9 9 12 14 14 16 15 16 14 9 10 13 11 7 5 8 12 15 17 16 12 11 13 15 15 15 14 14 13 14 15 16
7 6 6 7 9 9 7 6 5 5 5 4 3 3 2 1 1 1 1 3 3 4 5 6 8 9 10 10 9 9 9 8 9 9 9 10 11 10 8 10 10 6 8 9 6 6 9 8 8 8 7 6 9 10 9 10 11 12 14 15 15 15 14 14 12 7 9 9 5 6 5 4 12 19 15 12 13 13 15 19 19 18 17 16 16 16 17 17
7 7 7 8 9 9 7 6 6 5 4 3 2 1 0 1 1 0 3 3 3 3 5 6 7 9 10 10 10 9 10 9 9 9 10 10 11 11 9 10 10 7 9 12 9 9 10 10 8 8 9 9 10 11 9 10 12 13 15 16 16 16 15 14 10 7 6 5 4 6 5 2 9 18 11 9 13 15 17 20 21 21 19 18 18 18 18 18
7 7 8 8 9 8 7 6 6 4 3 2 1 0 1 2 1 2 3 1 1 2 5 6 7 8 8 9 9 9 10 10 10 11 11 11 12 14 12 12 12 9 10 13 12 12 11 10 8 9 11 11 12 12 12 13 12 13 16 16 14 13 12 9 6 4 5 3 2 5 9 4 8 16 13 11 14 17 21 22 21 21 21 20 19 18 18 18
7 7 8 9 9 8 7 6 4 3 1 0 0 1 2 1 1 2 2 0 1 3 4 5 5 6 7 8 8 9 11 11 11 11 12 12 13 15 13 13 13 8 5 8 11 12 12 11 9 11 12 12 11 12 13 15 14 14 14 12 10 8 6 5 4 4 5 3 1 8 12 7 18 26 21 16 17 22 27 24 18 19 21 22 21 18 18 18
7 7 8 8 8 7 6 4 2 1 0 1 2 3 3 1 2 1 1 1 2 2 3 4 5 6 7 9 10 10 10 11 11 10 12 13 13 15 14 12 13 9 6 8 8 8 10 11 10 12 13 11 10 10 8 8 11 13 10 6 7 6 5 5 5 6 6 3 6 15 14 12 21 22 17 21 26 29 28 18 15 20 22 23 23 19 19 18
7 8 8 8 7 6 4 2 1 1 2 2 3 3 2 1 2 2 2 1 1 2 3 5 5 6 9 9 10 10 10 11 11 10 13 14 13 14 14 12 11 10 10 9 6 7 7 7 9 12 13 11 12 11 7 8 12 12 7 5 5 4 3 5 5 6 8 9 12 15 11 10 13 17 24 29 27 24 19 14 17 25 24 22 22 21 19 19
7 8 8 7 6 4 3 1 1 2 3 3 3 3 1 2 3 3 2 2 3 3 3 6 6 7 9 9 9 10 9 10 11 11 12 12 11 11 13 12 11 10 11 8 6 9 8 7 10 14 14 12 12 11 10 11 10 8 9 7 4 6 6 8 9 10 10 11 11 10 13 19 23 32 34 20 13 16 15 17 22 24 21 19 19 20 20 21
6 7 7 6 4 3 2 2 2 3 4 4 4 2 3 3 4 3 3 3 4 4 4 5 7 7 8 9 9 9 9 10 12 11 11 11 9 9 11 11 11 10 10 9 7 7 6 9 14 16 13 12 12 13 13 12 8 9 11 6 8 10 10 9 10 11 8 7 8 9 16 28 29 31 29 15 14 21 17 19 24 20 19 17 17 19 21 23
6 7 6 5 4 3 3 3 4 5 5 5 4 3 3 4 5 5 5 5 5 5 5 4 5 5 6 8 8 8 8 10 11 9 9 10 8 9 11 11 11 11 10 10 8 7 10 14 15 14 12 13 14 15 17 15 11 11 10 9 11 11 7 5 5 6 5 7 9 10 17 28 22 19 27 25 21 22 20 23 25 20 19 18 17 19 21 24
6 6 5 4 4 3 4 5 6 6 5 5 4 4 5 6 6 6 6 5 6 6 6 5 3 4 5 6 7 8 8 8 10 9 8 8 8 10 11 11 11 12 11 11 10 11 12 13 14 13 13 15 18 18 17 17 14 12 12 13 12 8 4 4 3 5 6 6 8 9 13 27 28 24 30 28 21 24 26 25 24 23 22 21 20 21 22 26
6 5 4 4 3 4 5 6 7 7 6 6 5 5 5 6 6 6 6 5 5 5 5 5 4 4 4 5 7 7 7 7 8 8 7 8 9 10 10 11 12 12 13 12 11 13 12 9 10 15 17 17 20 18 12 14 17 15 15 15 13 10 9 9 7 7 8 5 9 9 6 20 33 30 29 29 27 29 27 25 27 27 26 25 25 26 27 30
5 5 4 4 4 5 7 8 8 8 7 6 5 5 6 7 7 6 6 5 5 4 4 4 4 4 4 5 6 7 7 6 7 8 7 9 10 10 10 12 12 13 13 13 12 13 13 9 9 16 21 19 18 18 14 14 17 17 15 13 14 13 10 12 14 15 12 6 7 7 6 25 41 33 30 33 30 28 27 29 31 29 28 28 28 29 30 31
4 4 4 4 5 8 8 8 8 7 7 6 6 7 7 7 6 6 5 5 4 3 3 3 4 4 5 5 6 7 7 6 7 8 8 10 11 10 11 13 14 14 14 14 14 13 11 11 13 19 21 18 18 22 23 20 18 18 17 13 14 13 9 8 10 12 14 10 10 7 8 34 50 37 33 33 26 26 31 32 32 29 27 28 28 29 30 31
4 4 4 5 7 9 9 8 8 7 7 7 7 8 7 6 6 5 4 3 3 2 2 2 3 4 5 6 6 7 9 7 7 8 9 10 11 11 13 15 14 15 16 16 15 14 14 14 18 22 23 21 20 20 19 18 17 18 18 16 15 14 14 11 7 8 10 13 19 13 9 36 55 42 34 32 27 31 36 33 31 28 27 28 28 29 29 31
4 4 5 7 8 9 9 8 8 8 8 8 8 7 7 6 5 4 4 3 2 1 1 2 3 3 5 6 6 8 9 8 8 10 10 11 12 14 15 15 15 16 17 16 15 15 15 13 16 22 25 22 20 17 12 12 14 16 19 19 19 19 20 18 17 18 15 14 19 9 9 37 56 44 36 36 36 38 37 32 30 27 28 29 29 29 30 32
5 5 7 9 9 9 9 8 8 8 8 8 7 7 7 6 5 4 3 2 1 0 1 2 3 4 5 6 7 8 9 8 9 11 11 12 14 15 15 15 16 17 17 17 17 16 14 12 13 16 17 13 12 11 7 9 15 21 26 26 26 26 22 21 23 21 19 26 25 10 14 42 53 46 44 45 44 43 37 33 32 30 31 32 33 34 32 31
6 6 8 9 9 9 8 8 9 9 8 7 7 6 6 5 4 3 2 2 2 2 3 3 5 6 7 8 8 9 9 9 11 12 13 15 16 16 16 17 18 19 19 19 19 18 18 18 15 11 9 8 9 9 11 16 23 29 33 33 34 31 25 23 20 14 19 28 23 20 30 53 58 50 48 48 45 42 37 34 33 33 33 33 34 36 35 34
8 8 8 9 9 9 9 9 9 9 8 7 6 6 5 4 4 4 3 2 3 4 5 6 6 7 8 9 10 11 11 11 13 13 14 16 17 17 18 19 20 20 20 20 20 19 20 23 22 18 18 20 22 23 24 28 31 34 36 36 37 36 31 26 19 21 30 27 23 35 47 54 58 53 47 47 44 39 35 34 33 32 30 30 33 35 37 39
8 9 8 8 8 8 9 9 9 9 9 8 7 6 6 5 4 4 4 4 4 5 6 7 8 9 10 11 12 13 12 14 15 16 16 17 19 20 20 21 22 22 21 21 20 19 21 26 27 25 26 29 32 33 31 32 35 38 38 38 38 37 35 32 30 36 38 23 26 49 47 40 51 54 48 48 43 36 35 33 31 30 29 32 36 37 38 39
8 9 9 9 7 8 9 9 9 9 8 8 7 6 6 5 5 5 5 5 6 7 8 9 9 10 11 12 14 14 14 16 18 17 17 19 21 22 22 23 23 23 22 21 20 20 22 27 29 28 29 31 32 34 34 33 35 38 39 39 37 35 37 39 38 43 40 30 37 55 49 42 51 50 42 40 36 34 34 30 28 31 33 35 37 37 39 39
9 9 9 9 8 8 10 10 9 9 8 7 7 6 6 6 6 6 7 7 8 9 10 11 11 12 13 13 15 16 16 17 19 19 20 22 22 23 24 25 24 24 24 23 23 22 21 26 30 30 31 32 32 33 34 34 35 38 41 43 41 38 39 41 39 38 38 42 48 52 50 52 50 40 36 36 34 34 33 30 32 35 34 36 38 39 40 40
10 10 9 9 9 9 10 10 10 9 8 8 7 7 7 7 7 8 8 9 10 11 12 13 14 15 15 16 17 17 17 19 21 22 22 23 24 25 25 26 25 26 28 27 27 25 23 26 31 32 33 34 33 32 33 32 34 39 44 45 41 36 34 34 33 32 34 42 45 43 47 51 43 35 37 39 36 35 33 33 36 36 35 38 41 42 43 42
11 10 9 9 10 10 10 10 9 9 8 8 8 7 8 8 9 10 10 11 12 13 13 15 16 16 17 18 18 18 19 21 22 23 24 24 26 26 27 28 28 29 30 29 29 28 26 28 32 29 28 33 36 34 32 32 35 42 44 36 25 20 24 30 33 33 32 36 40 40 43 44 39 37 40 38 33 33 34 35 36 35 36 38 40 43 44 44
11 10 10 10 10 10 10 10 10 9 9 9 9 9 9 10 10 12 12 13 13 14 15 16 17 18 19 19 20 20 21 23 24 24 25 26 27 28 28 29 29 29 30 29 29 30 28 30 31 22 19 30 34 29 29 31 30 31 28 20 16 23 31 34 34 32 29 32 37 38 38 39 40 39 38 35 33 37 40 40 38 38 38 39 42 45 46 46
Wind_Direction
117 112 102 77 70 80 85 93 99 101 102 100 98 94 89 84 73 61 48 30 5 350 335 324 312 307 301 295 294 291 291 293 294 295 297 297 294 293 291 290 289 287 286 284 282 280 279 279 276 276 277 276 273 271 267 262 255 246 240 235 242 252 258 251 238 248 257 263 264 265 273 274 273 273 273 274 276 277 277 275 272 269 269 267 264 260 259 259
132 135 121 93 90 95 101 105 104 102 99 92 86 76 69 60 46 30 6 341 325 318 309 306 302 299 296 292 290 288 291 292 292 294 295 293 290 290 290 289 288 286 284 281 277 273 274 274 274 276 279 280 277 274 273 268 263 255 243 240 247 253 253 241 239 257 263 266 269 271 274 273 273 274 276 278 278 280 281 280 277 274 271 268 264 262 262 261
133 136 129 120 115 115 116 112 103 98 89 78 67 52 38 22 2 341 328 317 313 310 307 305 302 299 296 293 291 291 292 293 294 295 292 288 288 289 289 288 287 286 285 283 279 274 272 271 274 276 276 277 274 274 272 268 268 259 245 242 249 251 251 248 253 267 268 266 271 274 274 272 273 274 276 277 278 279 277 278 278 275 273 269 265 263 262 260
121 125 124 123 122 120 117 109 97 85 70 55 34 15 356 342 331 325 321 318 316 312 310 307 304 302 298 295 295 295 296 298 296 292 286 286 290 291 290 289 288 288 286 286 285 283 278 275 276 275 275 270 266 273 267 263 265 252 247 244 245 248 252 260 266 272 270 268 273 275 274 274 274 273 273 275 279 278 276 278 277 274 271 266 263 262 261 263
118 122 123 124 123 118 110 98 84 63 38 9 349 337 331 327 324 322 319 317 314 311 309 307 305 303 301 301 300 303 306 300 292 287 285 291 293 290 290 290 291 290 288 289 288 287 283 280 278 273 276 264 264 277 264 260 263 252 256 256 253 254 257 266 272 273 272 272 273 274 275 275 274 272 271 273 275 276 278 279 276 273 269 264 261 261 262 266
128 130 129 127 122 113 100 79 50 16 345 330 325 323 322 319 318 316 314 312 311 311 312 313 313 312 313 312 310 311 308 287 285 291 292 294 291 290 293 294 295 294 292 292 289 287 283 281 278 275 276 262 261 270 259 264 268 254 262 265 261 261 261 267 272 271 272 272 272 274 274 274 273 273 273 273 272 274 276 275 274 273 269 265 262 261 263 267
132 133 132 128 116 94 58 17 345 329 317 313 312 312 312 312 313 312 312 314 315 320 325 328 328 328 327 322 317 311 303 289 290 295 298 297 295 299 301 299 298 295 293 290 285 283 280 277 275 271 269 261 258 259 258 268 270 252 257 265 266 267 266 269 271 272 274 273 274 274 273 274 274 274 274 274 273 273 273 272 271 270 267 264 263 264 266 269
123 125 123 106 62 17 350 329 315 307 302 303 305 307 310 312 314 315 319 321 322 327 331 335 335 338 337 330 324 313 308 302 297 302 305 303 301 304 304 301 299 295 293 288 284 281 277 273 268 264 258 254 256 260 263 269 268 256 255 266 271 271 270 271 272 274 274 275 276 275 276 275 275 275 274 273 273 272 271 270 269 267 266 264 264 265 267 269
119 120 102 33 355 334 319 308 302 300 301 304 307 311 314 316 320 324 328 324 320 322 327 332 334 339 337 333 329 314 315 312 303 307 306 302 303 304 306 305 302 300 298 292 289 281 274 269 261 259 254 253 257 262 265 260 259 260 261 269 271 270 272 272 273 274 274 276 277 277 278 277 276 275 274 274 274 273 271 269 268 267 266 265 266 267 267 269
135 127 350 330 321 309 302 300 300 301 303 305 307 311 313 318 329 336 336 331 325 322 327 330 330 334 332 331 325 304 307 313 311 313 307 302 304 308 310 309 306 303 299 295 293 285 276 269 264 261 257 260 262 261 262 253 252 260 266 271 271 272 274 273 275 276 276 278 279 280 280 278 278 275 275 279 277 274 271 269 268 267 266 267 267 268 268 269
195 283 304 305 303 299 299 300 301 302 301 302 304 306 311 326 347 343 340 337 332 329 333 333 329 330 325 322 315 298 297 302 311 317 313 308 309 310 312 313 309 303 299 295 292 288 280 273 270 266 261 265 266 263 264 259 258 263 268 271 272 274 275 276 278 278 280 281 281 282 281 280 280 276 278 281 276 272 270 268 267 266 266 266 266 267 267 267
272 287 297 300 300 300 302 303 304 305 305 308 309 309 328 0 352 343 340 338 334 334 337 336 328 323 316 312 308 302 298 294 306 316 316 311 310 311 317 319 316 311 306 300 295 291 285 279 275 270 266 266 268 268 268 267 267 269 270 272 275 278 277 276 277 278 281 281 283 284 286 289 285 278 281 281 275 272 270 267 266 265 265 264 265 264 263 264
288 297 304 308 309 310 313 318 326 333 338 342 354 41 42 351 345 342 341 339 338 340 343 343 330 322 315 311 310 309 303 300 308 311 308 310 318 323 325 321 317 315 311 307 303 296 292 286 280 276 271 270 271 271 273 275 276 274 273 273 279 285 281 279 280 280 282 282 284 286 290 295 288 279 281 282 279 274 270 269 266 264 264 262 262 263 262 263
299 313 324 333 338 338 340 346 354 0 4 10 28 27 332 335 340 342 343 343 343 347 356 351 339 331 324 319 319 316 312 311 314 310 311 321 328 328 325 323 321 320 318 313 309 306 302 295 288 283 277 276 275 275 278 278 276 274 277 278 275 272 273 277 283 285 285 285 286 287 288 289 279 276 281 282 281 277 274 274 271 268 267 265 265 265 265 264
321 336 348 1 10 10 2 357 358 4 8 4 349 326 323 331 335 340 343 345 347 353 355 348 340 334 328 326 323 320 321 323 326 328 330 331 326 324 325 326 327 325 323 319 317 314 309 302 297 289 284 284 283 285 286 285 285 279 279 282 266 255 272 282 285 285 286 287 288 287 287 283 274 276 282 284 284 283 281 278 276 274 272 271 271 269 269 267
334 346 7 21 31 33 13 356 347 347 344 331 321 318 322 328 333 340 344 347 352 350 347 344 340 334 329 329 325 323 325 327 329 328 327 324 319 322 324 325 329 328 326 325 324 320 315 314 309 300 297 293 290 291 281 273 273 271 270 275 270 266 283 292 291 286 287 291 292 288 280 277 278 281 285 287 286 284 282 281 279 278 275 273 273 271 270 268
343 8 19 18 21 17 0 337 322 318 315 313 312 315 320 327 333 340 346 351 351 345 345 346 343 336 327 332 331 325 323 320 319 318 319 320 319 321 324 328 331 330 330 330 328 326 323 322 318 317 316 303 291 280 274 268 263 266 269 283 286 284 286 291 290 289 292 294 294 291 285 285 286 286 288 287 287 285 282 282 279 277 276 274 273 271 270 267
13 18 12 2 356 352 345 334 320 313 309 308 311 316 323 329 336 345 349 350 350 349 350 347 346 339 319 326 330 325 320 313 313 320 322 321 323 326 330 334 333 333 336 332 330 331 327 326 336 349 327 306 295 262 262 276 285 284 285 294 294 296 300 290 281 289 297 296 294 291 288 292 291 289 293 292 287 286 285 282 280 278 276 274 273 271 269 267
21 12 5 355 354 351 346 344 339 328 318 312 315 319 328 338 344 350 344 345 354 356 352 344 344 341 316 321 328 327 327 325 324 330 328 324 330 333 334 336 333 335 339 328 319 325 326 330 342 266 278 293 293 267 250 261 270 272 279 287 286 292 299 285 283 295 301 299 298 294 290 291 288 287 294 295 288 286 286 282 279 278 276 274 272 271 268 268
14 4 1 358 360 356 350 348 346 343 333 325 326 329 340 351 351 348 342 338 347 349 347 340 336 334 327 329 335 339 343 342 334 334 333 333 334 334 334 337 332 330 336 325 309 321 332 320 285 268 279 288 286 276 267 270 272 276 286 293 295 295 290 286 294 304 306 303 302 298 295 294 293 291 290 292 292 287 283 280 278 277 275 273 270 269 268 265
0 0 359 0 2 359 355 351 347 346 341 338 339 334 339 359 0 350 330 314 331 343 345 342 341 343 343 342 344 348 347 341 339 342 342 338 335 335 334 337 335 320 326 330 318 324 328 290 288 289 288 290 291 289 288 286 282 291 302 303 306 294 280 292 302 309 312 307 307 305 301 304 307 297 284 290 296 287 282 280 279 278 273 273 270 266 264 260
343 353 353 358 1 359 357 352 348 345 340 341 337 328 331 346 344 326 294 289 293 332 344 349 355 356 354 352 350 348 345 345 347 344 340 336 333 334 332 334 332 310 317 330 326 326 320 301 302 304 301 298 300 299 302 309 308 318 321 308 308 291 287 300 307 313 318 311 312 313 309 315 320 301 291 302 306 293 289 288 284 282 277 276 272 264 260 259
326 338 349 356 357 357 355 352 351 346 339 339 337 343 350 344 336 318 304 273 269 326 347 353 359 360 356 354 352 348 343 344 343 335 333 331 327 330 329 326 323 315 318 323 315 284 288 306 314 313 312 309 316 326 338 348 333 308 314 309 299 298 301 307 307 312 320 315 316 321 319 323 334 324 321 318 316 306 299 299 292 286 284 280 274 269 267 265
316 326 342 351 352 352 351 349 348 345 339 341 347 356 356 357 355 288 291 280 289 337 353 355 357 357 355 352 351 347 338 334 338 337 337 337 334 335 337 335 332 334 332 330 331 258 265 303 323 329 331 340 346 348 354 2 319 286 302 308 298 302 307 305 306 314 323 318 319 330 329 326 322 327 330 327 323 315 304 308 302 289 287 282 278 277 273 270
313 312 328 343 347 347 346 343 342 340 339 343 352 357 353 355 343 275 300 312 315 341 354 356 353 354 355 353 349 344 335 337 344 346 347 351 354 348 351 353 348 349 347 348 355 344 331 332 338 346 347 354 358 347 344 351 322 291 294 301 305 307 308 308 313 323 326 313 310 329 335 318 314 320 320 326 330 316 310 313 303 292 289 284 282 279 273 272
310 300 315 336 343 344 342 338 336 338 341 346 353 352 349 346 341 308 324 301 294 331 349 354 353 355 355 352 352 350 346 348 352 357 360 5 5 358 1 3 359 1 355 359 3 348 349 348 348 356 354 1 5 343 335 335 326 294 282 295 306 308 311 315 320 324 321 306 307 319 319 289 309 312 303 314 320 312 316 316 303 294 290 287 281 276 274 275
308 296 308 331 341 342 340 339 340 345 347 348 347 343 345 349 1 19 323 271 263 320 339 349 349 352 357 357 1 8 7 354 357 6 9 11 10 5 11 10 5 8 6 9 4 334 345 350 351 356 359 9 358 314 319 325 322 291 284 299 310 313 314 315 320 313 297 303 307 307 287 280 296 303 307 309 305 305 316 317 309 298 291 289 279 274 275 274
304 296 304 324 338 340 340 343 346 351 347 343 339 338 351 354 43 47 319 268 290 328 334 348 351 352 1 5 9 19 19 4 3 9 13 16 13 9 16 13 7 9 16 18 347 317 341 348 346 357 7 360 307 305 317 321 320 310 310 316 317 316 314 311 316 305 291 307 304 284 296 288 278 292 303 300 297 306 314 316 313 301 291 288 282 276 273 271
299 294 299 316 331 336 338 339 340 344 338 334 335 338 353 28 56 58 241 266 314 336 337 348 356 357 3 9 15 20 19 15 15 14 17 20 15 15 20 15 12 13 14 13 356 338 344 347 347 353 353 328 316 325 328 324 326 326 327 327 322 318 319 319 313 293 286 295 269 246 290 309 288 296 295 284 297 313 313 313 312 305 293 285 283 278 274 274
293 291 294 307 324 331 330 327 330 334 327 330 338 333 346 111 71 204 236 270 289 321 347 349 355 0 5 11 14 17 19 23 24 22 23 22 18 22 25 18 15 11 9 9 5 355 348 346 345 340 339 335 334 333 331 336 333 329 334 337 332 324 322 321 305 287 277 268 221 238 279 330 297 304 300 265 292 311 312 312 310 305 296 285 281 279 279 279
288 288 292 303 317 324 323 321 323 326 325 332 333 244 141 115 50 257 247 286 263 304 350 353 359 6 10 14 14 18 21 21 22 23 21 20 20 22 23 17 11 7 6 1 354 351 348 344 339 338 339 337 338 337 334 338 334 334 345 346 331 310 301 294 265 243 257 267 157 252 303 319 255 290 301 279 290 308 314 315 309 304 298 289 283 278 280 280
287 288 292 302 312 318 318 316 319 322 318 7 169 138 133 141 328 274 232 177 281 311 347 357 11 19 20 24 24 23 23 21 21 21 18 19 20 20 21 16 15 20 3 339 339 343 342 342 341 338 336 334 341 347 338 336 337 338 345 341 320 301 288 275 248 246 270 300 313 286 310 292 262 283 298 299 305 310 312 313 307 306 301 293 286 278 277 279
291 293 296 302 309 312 311 307 316 312 202 151 156 136 126 200 252 240 163 167 319 347 19 21 26 32 31 31 28 25 23 20 19 20 19 17 14 15 15 12 16 23 359 340 344 339 326 329 335 332 332 330 334 342 332 320 318 321 330 338 324 321 315 295 291 297 289 300 306 297 302 286 277 288 299 305 309 307 305 302 304 315 310 295 285 276 276 277
293 296 298 302 306 306 302 298 305 233 167 152 155 142 127 238 218 171 141 94 47 63 57 43 42 40 34 32 29 26 22 18 17 19 18 13 8 8 5 4 10 10 3 357 346 332 313 309 323 325 324 321 323 328 316 306 310 306 311 329 310 294 293 295 306 310 300 307 304 292 287 274 274 294 304 306 308 306 299 289 305 318 314 296 282 273 275 276
293 295 297 301 302 297 292 283 236 188 165 155 148 151 225 242 189 159 133 92 82 87 70 54 48 43 36 30 26 22 20 18 15 17 17 9 2 358 354 358 360 360 8 4 336 332 318 302 315 318 315 313 315 317 315 324 326 307 315 326 276 247 266 281 286 287 291 303 292 261 268 279 287 305 312 311 311 312 300 292 307 315 313 303 286 277 277 274
294 295 295 295 292 284 279 257 204 175 156 146 144 174 233 209 179 163 130 103 90 84 77 52 36 39 34 23 21 20 18 16 12 14 11 1 355 352 352 354 351 354 3 355 343 338 312 301 311 315 315 315 314 314 315 319 309 297 308 296 258 271 279 272 278 280 269 276 272 245 273 290 299 313 319 317 312 314 306 303 313 316 313 310 297 287 282 278
297 294 290 284 278 274 258 223 184 163 152 148 155 187 190 160 150 147 127 108 94 80 74 54 32 37 29 17 18 18 17 17 13 9 1 355 351 347 348 349 348 351 352 348 344 333 318 313 314 317 318 317 318 315 313 310 299 289 286 272 278 295 293 264 276 287 260 264 278 261 275 290 294 303 310 311 312 315 315 315 320 320 313 308 300 294 287 285
296 289 281 274 272 257 224 193 167 154 151 152 157 164 161 149 139 134 124 110 102 84 71 67 47 40 32 18 13 10 14 14 8 3 357 351 344 340 342 344 345 344 344 345 335 327 327 320 315 318 319 320 319 314 311 310 305 289 277 279 286 289 280 261 261 295 296 282 285 275 274 285 285 289 305 310 309 313 318 320 322 322 314 307 301 296 289 287
288 279 269 266 259 224 198 176 158 154 153 151 152 156 157 150 137 128 124 111 104 91 73 70 55 38 31 20 12 6 4 2 358 357 352 344 338 334 336 338 340 338 338 337 329 327 329 314 303 309 313 317 315 311 306 302 305 302 287 281 276 263 262 264 247 261 288 285 286 290 275 282 288 293 302 308 311 314 318 321 321 321 317 309 304 300 295 290
278 264 252 247 222 195 183 168 160 161 161 160 166 168 157 148 139 128 123 110 101 95 82 70 50 39 27 14 10 2 356 349 346 346 340 337 337 333 333 334 334 333 332 330 327 325 320 303 289 302 311 315 311 310 305 292 294 295 285 276 274 268 259 266 263 256 261 268 290 298 275 283 291 295 298 306 313 314 318 323 321 320 316 310 305 300 297 293
264 248 233 220 198 186 176 164 161 164 166 166 166 163 154 148 145 137 130 121 109 96 82 65 42 32 19 6 2 357 352 339 336 341 333 332 336 331 331 331 329 329 328 326 325 323 315 298 283 290 301 301 298 303 304 295 286 281 275 263 266 268 255 267 276 254 243 237 261 282 281 287 294 301 305 310 316 315 320 323 320 316 310 304 301 298 296 294
249 234 214 199 189 183 172 161 159 162 166 166 162 159 156 152 147 141 138 133 125 107 76 49 25 17 6 358 354 349 345 333 329 336 330 329 330 325 325 326 325 325 323 322 322 318 311 297 286 294 305 305 303 304 298 294 288 278 272 263 259 256 248 251 264 267 255 241 255 262 260 285 295 302 306 311 315 315 320 321 317 312 302 298 298 296 296 295
227 215 199 187 180 176 168 159 160 167 171 167 160 160 160 158 154 149 150 147 140 131 71 17 358 354 347 346 345 341 339 330 324 328 327 326 326 323 323 323 321 321 319 318 319 317 314 303 293 305 313 310 309 310 298 293 293 284 283 280 271 264 262 261 260 270 275 254 252 244 240 279 294 302 302 306 311 314 319 319 313 304 295 295 295 293 295 297
203 197 189 180 175 171 164 159 165 172 173 166 161 162 163 164 164 161 163 166 167 213 296 321 327 328 330 334 331 330 332 325 321 325 323 323 324 322 321 320 319 318 315 312 312 311 309 298 292 307 316 308 303 310 309 308 306 299 295 291 285 280 276 270 265 265 270 264 255 230 248 276 290 298 297 302 309 313 318 319 313 306 301 300 299 299 302 302
195 190 182 177 175 173 167 165 168 169 169 168 167 167 169 171 175 180 192 211 238 272 286 303 315 314 318 322 319 320 322 314 314 319 319 319 320 320 319 319 317 316 314 310 307 306 299 289 282 286 291 284 290 302 304 303 302 297 294 291 289 287 280 273 269 251 256 265 249 223 253 278 291 295 293 299 308 313 317 319 314 308 305 304 303 305 308 307
195 189 181 177 177 178 175 173 172 168 166 173 179 180 183 187 191 203 221 240 265 285 287 293 305 308 311 314 313 314 315 309 308 313 317 317 317 318 318 316 315 315 312 308 304 302 295 292 289 280 275 280 289 296 296 294 294 293 293 291 287 287 282 274 259 246 256 263 256 253 261 277 292 298 297 302 310 314 315 313 307 302 301 303 304 305 306 308
195 191 182 178 180 182 183 180 178 175 171 174 182 191 199 204 212 227 242 254 273 288 289 290 297 303 308 310 310 311 313 309 308 311 314 314 315 318 316 314 315 313 309 306 303 297 291 294 297 293 292 296 298 300 300 296 295 296 296 293 288 286 283 270 258 267 273 260 265 278 275 271 286 297 301 304 311 314 311 308 302 301 304 307 307 307 308 310
194 192 185 182 184 187 188 185 181 181 179 180 186 194 204 214 229 243 253 264 277 285 289 294 299 302 305 307 305 308 311 309 309 312 314 313 314 317 315 314 314 311 308 305 301 296 291 292 296 297 300 304 302 302 304 300 299 301 299 297 292 286 284 279 277 285 282 256 266 288 289 279 285 297 305 310 315 313 307 303 301 304 308 309 310 311 312 313
195 192 188 187 190 189 188 188 187 188 190 193 199 207 216 228 244 255 261 271 281 285 289 296 300 301 304 304 302 306 309 307 308 312 313 312 312 314 314 313 312 309 307 304 300 298 291 290 295 295 298 304 303 301 303 303 303 304 302 302 299 292 290 290 291 296 285 269 277 290 291 288 294 305 314 317 316 308 303 302 304 308 312 313 315 317 317 316
195 192 192 194 194 188 187 190 192 196 202 210 218 224 234 245 255 263 269 276 283 288 292 296 299 300 302 301 301 305 305 303 307 311 311 310 310 311 311 311 309 307 304 301 299 296 287 285 292 292 293 302 306 303 302 303 305 304 303 305 303 298 295 290 291 297 289 283 291 293 286 289 303 317 318 315 312 308 307 308 309 311 315 319 320 320 320 318
196 196 200 200 196 191 190 194 197 203 212 222 233 241 248 255 262 270 277 281 284 289 294 296 298 299 300 301 302 303 302 303 307 309 308 308 308 308 307 306 306 303 300 298 296 293 287 284 290 294 291 297 304 304 301 304 305 303 304 309 307 300 300 297 296 299 296 294 298 292 284 293 312 320 313 309 310 311 311 311 310 308 312 318 318 318 319 317
201 203 202 200 199 197 198 202 205 214 222 231 242 250 258 265 270 276 282 285 287 291 295 297 297 297 299 302 302 301 301 303 305 306 306 306 305 305 304 303 302 299 297 296 292 290 288 284 287 290 284 291 298 298 297 304 306 303 305 312 314 309 306 302 300 304 307 303 296 290 291 304 313 311 306 305 308 312 314 314 310 307 311 316 316 317 317 315
Height
3138 3139 3140 3140 3141 3142 3142 3143 3143 3144 3144 3145 3145 3145 3145 3145 3145 3145 3145 3146 3145 3146 3146 3146 3146 3146 3145 3145 3145 3144 3144 3143 3143 3142 3142 3141 3141 3140 3139 3139 3139 3138 3138 3138 3137 3137 3137 3136 3136 3136 3136 3136 3136 3136 3136 3136 3136 3135 3136 3136 3136 3136 3136 3134 3134 3133 3133 3131 3130 3130 3130 3129 3129 3129 3129 3129 3128 3128 3127 3127 3127 3126 3126 3126 3127 3127 3127 3126
3139 3140 3141 3141 3142 3143 3143 3144 3144 3145 3145 3145 3145 3145 3145 3145 3145 3146 3146 3146 3146 3145 3145 3145 3145 3145 3145 3144 3144 3143 3143 3142 3142 3141 3140 3140 3139 3138 3138 3138 3137 3137 3136 3136 3136 3136 3136 3135 3135 3135 3135 3135 3135 3134 3134 3134 3134 3134 3134 3135 3134 3135 3133 3131 3131 3131 3131 3130 3128 3129 3129 3128 3128 3128 3127 3127 3127 3126 3126 3125 3125 3125 3125 3125 3125 3125 3125 3125
3140 3141 3142 3142 3143 3144 3144 3145 3145 3145 3145 3145 3146 3146 3146 3146 3145 3145 3145 3145 3145 3145 3145 3144 3144 3144 3143 3143 3142 3142 3142 3141 3140 3140 3139 3138 3137 3137 3137 3136 3136 3135 3135 3135 3134 3134 3134 3134 3134 3134 3134 3134 3133 3133 3133 3132 3133 3133 3133 3134 3133 3132 3130 3129 3130 3129 3129 3128 3127 3127 3127 3127 3126 3126 3126 3125 3125 3124 3124 3124 3124 3123 3123 3123 3123 3123 3124 3124
3141 3142 3143 3143 3144 3144 3145 3145 3146 3146 3146 3146 3146 3146 3146 3146 3145 3145 3145 3144 3144 3144 3143 3143 3143 3142 3142 3141 3141 3141 3140 3140 3139 3138 3138 3137 3137 3136 3135 3135 3135 3134 3134 3133 3133 3133 3133 3133 3133 3133 3133 3133 3132 3132 3132 3131 3132 3131 3131 3131 3130 3129 3128 3127 3128 3128 3127 3127 3126 3126 3125 3125 3125 3125 3124 3124 3123 3122 3122 3122 3122 3122 3122 3122 3122 3122 3122 3122
3142 3143 3143 3144 3145 3145 3145 3146 3146 3146 3146 3146 3146 3146 3146 3145 3145 3144 3144 3143 3143 3143 3142 3142 3141 3141 3140 3140 3140 3139 3139 3139 3138 3137 3137 3136 3136 3135 3135 3134 3133 3133 3133 3132 3132 3132 3132 3132 3132 3132 3132 3132 3131 3131 3131 3129 3130 3130 3128 3128 3128 3128 3127 3125 3126 3126 3125 3125 3124 3124 3123 3123 3123 3123 3122 3122 3122 3120 3120 3120 3120 3120 3120 3120 3120 3120 3120 3120
3143 3144 3144 3145 3145 3146 3146 3146 3146 3146 3146 3146 3146 3145 3145 3145 3144 3144 3143 3143 3142 3142 3141 3141 3140 3140 3139 3139 3139 3139 3139 3138 3137 3136 3136 3136 3135 3134 3134 3133 3132 3132 3132 3131 3131 3131 3131 3131 3131 3131 3131 3131 3131 3130 3130 3128 3129 3129 3127 3125 3126 3126 3125 3124 3124 3124 3124 3123 3123 3122 3122 3121 3121 3120 3120 3120 3120 3118 3118 3118 3118 3118 3118 3118 3118 3118 3118 3118
3144 3145 3145 3146 3146 3146 3146 3146 3146 3146 3146 3146 3145 3145 3145 3144 3144 3143 3142 3142 3141 3141 3140 3140 3140 3139 3139 3138 3138 3138 3138 3138 3136 3135 3135 3135 3134 3133 3133 3132 3132 3131 3131 3131 3130 3130 3130 3130 3130 3130 3130 3130 3130 3129 3128 3127 3127 3128 3125 3123 3124 3124 3123 3123 3122 3122 3122 3121 3121 3120 3120 3120 3119 3118 3118 3118 3117 3117 3116 3116 3116 3116 3116 3116 3115 3115 3116 3115
3145 3145 3146 3146 3146 3146 3146 3146 3146 3145 3145 3145 3145 3144 3144 3143 3143 3142 3141 3141 3141 3140 3140 3140 3139 3139 3139 3138 3138 3138 3137 3137 3136 3135 3134 3134 3133 3133 3132 3131 3131 3130 3130 3129 3129 3129 3129 3129 3129 3129 3129 3129 3128 3127 3127 3126 3125 3125 3123 3122 3122 3122 3121 3121 3120 3120 3120 3119 3119 3118 3118 3117 3117 3116 3116 3115 3115 3115 3114 3114 3114 3113 3113 3113 3113 3113 3113 3113
3145 3146 3146 3146 3146 3146 3146 3145 3145 3145 3144 3144 3144 3143 3142 3142 3141 3141 3141 3141 3140 3140 3140 3140 3139 3139 3139 3138 3138 3137 3137 3136 3135 3135 3134 3133 3132 3132 3131 3130 3130 3129 3129 3128 3128 3128 3128 3128 3127 3128 3128 3127 3126 3125 3125 3125 3124 3123 3122 3121 3121 3120 3120 3119 3119 3118 3118 3117 3117 3116 3116 3115 3115 3114 3113 3113 3113 3113 3112 3112 3111 3111 3111 3110 3110 3110 3110 3110
3146 3147 3147 3147 3146 3146 3145 3145 3144 3143 3143 3143 3142 3142 3141 3141 3141 3141 3141 3140 3140 3140 3139 3139 3139 3139 3138 3138 3137 3137 3137 3136 3135 3134 3133 3132 3131 3130 3130 3129 3129 3128 3127 3127 3127 3127 3126 3126 3126 3126 3126 3125 3124 3124 3124 3124 3122 3121 3120 3120 3119 3118 3118 3117 3117 3116 3116 3115 3115 3114 3113 3113 3113 3112 3110 3111 3111 3110 3110 3109 3109 3109 3108 3108 3108 3108 3108 3107
3147 3147 3147 3147 3146 3145 3144 3144 3143 3142 3142 3142 3142 3141 3141 3141 3141 3140 3140 3140 3139 3139 3139 3139 3138 3138 3138 3137 3137 3137 3136 3135 3134 3133 3132 3131 3130 3130 3129 3128 3128 3127 3127 3126 3126 3126 3125 3125 3125 3125 3124 3123 3123 3122 3122 3121 3121 3120 3120 3119 3118 3117 3116 3116 3115 3115 3114 3114 3113 3112 3111 3110 3110 3109 3108 3109 3109 3108 3107 3107 3106 3106 3106 3105 3105 3105 3105 3104
3147 3147 3147 3146 3145 3144 3144 3143 3143 3142 3141 3141 3141 3141 3141 3141 3141 3140 3140 3139 3139 3138 3138 3138 3138 3138 3137 3137 3136 3136 3136 3135 3134 3132 3131 3130 3130 3129 3128 3128 3127 3126 3126 3125 3125 3125 3124 3124 3124 3123 3123 3122 3122 3121 3120 3120 3119 3119 3118 3117 3116 3116 3115 3114 3114 3113 3113 3112 3111 3111 3109 3108 3107 3106 3106 3106 3106 3105 3105 3104 3104 3103 3103 3103 3102 3102 3102 3101
3147 3146 3146 3145 3144 3144 3143 3143 3142 3142 3141 3141 3141 3141 3141 3141 3141 3140 3140 3139 3139 3138 3138 3138 3138 3137 3137 3136 3136 3135 3135 3134 3133 3132 3131 3130 3129 3128 3128 3127 3126 3126 3125 3125 3124 3124 3123 3123 3123 3122 3122 3121 3121 3120 3119 3119 3118 3118 3117 3116 3116 3115 3113 3112 3112 3112 3111 3111 3110 3109 3108 3106 3105 3104 3104 3104 3104 3103 3102 3102 3102 3101 3101 3100 3100 3099 3099 3099
3146 3146 3145 3145 3144 3143 3143 3142 3142 3141 3141 3141 3141 3141 3141 3141 3140 3140 3139 3139 3138 3138 3138 3138 3137 3137 3136 3135 3135 3134 3133 3133 3132 3131 3130 3129 3128 3128 3127 3126 3126 3125 3125 3124 3124 3123 3123 3122 3122 3121 3121 3120 3120 3119 3118 3118 3118 3117 3116 3115 3115 3115 3112 3110 3111 3110 3110 3109 3109 3108 3107 3105 3103 3102 3102 3102 3101 3101 3100 3100 3099 3099 3098 3098 3097 3097 3097 3096
3145 3145 3145 3144 3144 3144 3143 3142 3142 3142 3141 3141 3141 3141 3141 3140 3140 3139 3139 3138 3138 3138 3138 3137 3137 3136 3136 3135 3134 3133 3132 3131 3131 3130 3129 3128 3128 3127 3126 3126 3125 3125 3124 3124 3123 3122 3122 3121 3121 3120 3120 3119 3119 3118 3118 3117 3116 3116 3116 3115 3114 3115 3112 3110 3110 3109 3108 3108 3108 3107 3106 3104 3101 3100 3100 3100 3099 3099 3098 3097 3096 3096 3095 3095 3094 3094 3094 3093
3145 3145 3144 3144 3144 3144 3143 3143 3143 3142 3142 3142 3141 3141 3140 3140 3139 3139 3139 3138 3138 3138 3138 3137 3137 3136 3135 3135 3134 3133 3132 3131 3130 3129 3129 3128 3127 3127 3126 3125 3125 3124 3123 3123 3122 3122 3121 3121 3120 3120 3119 3119 3118 3118 3118 3117 3116 3115 3115 3115 3114 3114 3113 3110 3108 3108 3108 3106 3106 3105 3104 3102 3099 3097 3098 3097 3096 3096 3095 3094 3093 3092 3092 3092 3091 3091 3091 3091
3145 3145 3144 3144 3144 3144 3144 3143 3143 3142 3142 3142 3141 3141 3140 3140 3139 3139 3138 3138 3138 3138 3137 3137 3137 3136 3135 3135 3134 3133 3132 3131 3130 3129 3128 3128 3127 3126 3125 3125 3124 3123 3123 3122 3122 3121 3120 3120 3120 3119 3118 3118 3118 3118 3118 3117 3116 3115 3114 3115 3114 3112 3112 3111 3108 3106 3106 3105 3104 3103 3100 3099 3098 3094 3095 3095 3093 3093 3092 3091 3090 3090 3089 3089 3088 3088 3088 3088
3145 3144 3144 3144 3144 3144 3144 3143 3143 3142 3142 3141 3141 3140 3140 3139 3139 3138 3138 3138 3138 3137 3137 3137 3137 3136 3135 3135 3134 3133 3132 3131 3129 3128 3128 3127 3126 3125 3125 3124 3123 3122 3122 3121 3121 3120 3120 3119 3119 3120 3119 3117 3117 3118 3118 3116 3115 3115 3114 3114 3113 3111 3111 3110 3107 3105 3105 3103 3102 3101 3098 3096 3096 3092 3091 3092 3090 3089 3089 3088 3087 3087 3086 3086 3085 3085 3085 3085
3145 3144 3144 3144 3143 3143 3143 3143 3142 3142 3141 3141 3140 3140 3139 3139 3138 3138 3138 3138 3138 3138 3137 3137 3137 3136 3136 3134 3133 3132 3131 3130 3129 3128 3127 3126 3126 3125 3124 3123 3122 3122 3122 3121 3121 3120 3120 3119 3119 3120 3118 3117 3116 3116 3116 3115 3115 3114 3113 3113 3112 3111 3110 3108 3106 3105 3103 3101 3100 3099 3096 3094 3094 3091 3087 3087 3087 3086 3086 3085 3084 3084 3083 3083 3083 3082 3082 3082
3145 3145 3144 3144 3143 3143 3142 3142 3141 3141 3141 3141 3140 3140 3139 3139 3139 3138 3138 3138 3138 3138 3138 3137 3137 3136 3135 3134 3133 3132 3130 3129 3129 3128 3127 3126 3125 3124 3123 3123 3122 3122 3121 3121 3121 3120 3120 3119 3119 3119 3117 3116 3116 3115 3115 3114 3114 3113 3112 3112 3111 3110 3109 3107 3104 3103 3102 3100 3098 3096 3094 3091 3091 3090 3086 3084 3084 3084 3083 3082 3082 3081 3081 3080 3080 3080 3080 3080
3145 3145 3144 3144 3144 3143 3143 3142 3141 3141 3141 3141 3140 3140 3140 3139 3139 3139 3139 3139 3139 3138 3138 3138 3137 3136 3135 3133 3132 3131 3130 3129 3128 3127 3126 3126 3125 3124 3123 3123 3122 3122 3121 3121 3120 3119 3119 3119 3118 3117 3116 3116 3115 3115 3114 3114 3113 3112 3112 3111 3111 3109 3108 3105 3103 3102 3100 3098 3096 3094 3091 3088 3087 3087 3085 3082 3081 3081 3081 3080 3079 3079 3079 3078 3078 3078 3078 3078
3145 3145 3145 3145 3144 3143 3143 3142 3142 3141 3141 3141 3141 3140 3140 3140 3140 3139 3139 3139 3139 3139 3138 3137 3136 3135 3134 3133 3132 3131 3130 3128 3128 3127 3126 3125 3124 3124 3123 3122 3122 3122 3121 3120 3120 3119 3119 3118 3117 3116 3116 3115 3115 3114 3113 3113 3112 3112 3112 3111 3110 3108 3106 3104 3101 3100 3099 3096 3093 3092 3088 3085 3084 3083 3082 3080 3079 3079 3078 3078 3078 3077 3077 3076 3076 3076 3076 3076
3146 3146 3145 3145 3144 3144 3143 3143 3142 3141 3141 3141 3141 3140 3140 3140 3140 3139 3139 3139 3139 3138 3138 3137 3136 3135 3134 3133 3132 3131 3130 3129 3128 3127 3126 3125 3124 3123 3123 3122 3122 3121 3120 3120 3120 3120 3119 3117 3117 3116 3115 3115 3114 3113 3113 3111 3111 3111 3111 3111 3109 3107 3105 3103 3100 3098 3097 3095 3092 3090 3086 3082 3082 3081 3080 3079 3078 3077 3077 3076 3076 3075 3075 3074 3074 3074 3074 3073
3146 3146 3146 3145 3144 3144 3143 3143 3142 3142 3141 3141 3140 3140 3140 3140 3139 3139 3139 3139 3139 3138 3138 3136 3136 3135 3134 3133 3132 3131 3130 3129 3128 3127 3126 3125 3124 3123 3123 3122 3121 3120 3120 3119 3119 3119 3118 3117 3116 3115 3115 3114 3113 3112 3111 3111 3111 3110 3109 3109 3108 3106 3104 3103 3100 3097 3096 3093 3091 3090 3084 3080 3080 3080 3078 3078 3077 3076 3075 3075 3074 3073 3073 3073 3072 3072 3072 3071
3146 3146 3146 3145 3145 3144 3143 3143 3142 3142 3141 3141 3140 3140 3140 3139 3139 3139 3139 3139 3139 3138 3137 3137 3136 3135 3134 3133 3132 3131 3130 3129 3128 3127 3126 3125 3124 3123 3122 3122 3121 3120 3119 3119 3118 3118 3117 3117 3116 3115 3114 3113 3112 3112 3111 3111 3112 3110 3108 3107 3106 3104 3103 3101 3099 3097 3095 3093 3091 3091 3088 3081 3080 3079 3078 3076 3076 3075 3074 3073 3073 3072 3071 3071 3070 3070 3070 3069
3146 3146 3146 3145 3144 3144 3143 3142 3142 3141 3141 3140 3140 3140 3139 3139 3139 3139 3139 3139 3139 3138 3137 3137 3136 3135 3134 3133 3132 3131 3129 3129 3128 3127 3126 3124 3124 3123 3122 3121 3120 3120 3119 3118 3118 3117 3117 3116 3115 3115 3114 3113 3112 3112 3111 3111 3111 3110 3108 3106 3105 3103 3102 3100 3099 3098 3097 3095 3092 3092 3092 3085 3080 3079 3078 3076 3075 3074 3073 3072 3072 3071 3070 3069 3069 3068 3067 3067
3146 3146 3145 3145 3144 3144 3143 3142 3142 3141 3140 3140 3140 3140 3139 3139 3139 3139 3139 3139 3139 3138 3138 3137 3136 3135 3135 3133 3132 3130 3129 3129 3128 3127 3126 3124 3124 3123 3122 3121 3120 3120 3119 3118 3118 3117 3116 3116 3115 3114 3113 3113 3113 3113 3111 3110 3110 3110 3107 3106 3104 3103 3101 3099 3098 3098 3097 3095 3092 3090 3091 3088 3080 3078 3077 3075 3074 3073 3072 3071 3070 3069 3068 3067 3067 3066 3066 3065
3146 3145 3145 3144 3144 3143 3143 3142 3141 3141 3140 3140 3140 3139 3139 3139 3139 3139 3140 3139 3138 3139 3138 3137 3136 3135 3134 3133 3132 3131 3130 3129 3127 3126 3126 3125 3124 3123 3122 3121 3120 3120 3119 3118 3118 3117 3116 3115 3115 3114 3113 3113 3114 3113 3111 3110 3109 3108 3107 3105 3103 3102 3100 3099 3098 3097 3096 3095 3092 3089 3089 3088 3080 3076 3075 3073 3073 3072 3070 3069 3068 3067 3067 3066 3065 3064 3064 3063
3145 3145 3145 3144 3144 3143 3142 3142 3141 3140 3140 3140 3139 3139 3139 3139 3139 3139 3140 3139 3139 3139 3138 3137 3136 3135 3134 3133 3131 3131 3130 3129 3128 3127 3126 3125 3124 3123 3122 3121 3120 3120 3119 3118 3118 3117 3116 3115 3114 3113 3113 3113 3112 3111 3110 3110 3108 3107 3106 3104 3103 3101 3099 3098 3097 3096 3097 3095 3091 3088 3089 3088 3079 3073 3074 3072 3071 3071 3069 3068 3067 3065 3065 3064 3063 3062 3062 3061
3145 3144 3144 3144 3144 3143 3142 3142 3141 3140 3140 3139 3139 3139 3139 3139 3139 3140 3140 3139 3139 3139 3138 3137 3136 3135 3134 3132 3132 3131 3130 3129 3128 3127 3126 3126 3125 3124 3122 3122 3121 3120 3119 3118 3117 3117 3115 3115 3114 3113 3113 3112 3111 3110 3109 3109 3107 3106 3105 3103 3101 3099 3098 3097 3096 3096 3096 3091 3089 3087 3088 3089 3082 3072 3072 3072 3070 3069 3068 3067 3065 3064 3063 3062 3061 3060 3060 3059
3144 3144 3144 3144 3143 3142 3142 3141 3141 3140 3140 3140 3139 3140 3139 3139 3140 3140 3139 3139 3139 3138 3138 3137 3136 3135 3134 3133 3132 3131 3130 3129 3129 3128 3127 3126 3125 3124 3122 3122 3121 3119 3119 3118 3117 3116 3115 3114 3114 3113 3112 3111 3110 3109 3108 3108 3107 3106 3104 3102 3101 3099 3097 3096 3095 3096 3094 3087 3086 3087 3086 3089 3083 3072 3070 3070 3069 3068 3066 3065 3064 3062 3060 3059 3059 3058 3057 3056
3144 3144 3143 3143 3143 3142 3141 3141 3140 3140 3140 3140 3140 3140 3140 3140 3140 3139 3139 3139 3138 3138 3138 3137 3136 3135 3134 3134 3132 3131 3131 3130 3129 3128 3127 3126 3125 3124 3123 3123 3122 3121 3121 3120 3119 3117 3115 3114 3114 3113 3112 3111 3110 3109 3108 3107 3106 3105 3105 3104 3103 3099 3096 3095 3093 3092 3090 3086 3086 3086 3086 3086 3078 3069 3068 3068 3067 3065 3064 3063 3062 3061 3059 3057 3056 3056 3055 3054
3143 3143 3143 3143 3142 3141 3141 3140 3140 3140 3140 3140 3140 3140 3140 3140 3140 3139 3139 3139 3138 3138 3138 3137 3136 3135 3135 3134 3133 3132 3131 3130 3129 3128 3127 3127 3126 3125 3124 3124 3123 3122 3122 3121 3119 3118 3116 3114 3113 3112 3111 3111 3110 3109 3109 3108 3106 3106 3105 3106 3104 3101 3100 3098 3093 3089 3087 3087 3086 3086 3086 3081 3071 3067 3066 3065 3064 3062 3061 3060 3059 3058 3057 3055 3053 3053 3052 3051
3143 3143 3142 3142 3141 3141 3140 3140 3140 3140 3140 3140 3140 3140 3140 3140 3139 3139 3139 3139 3138 3138 3137 3137 3136 3135 3135 3134 3133 3132 3131 3130 3130 3128 3127 3126 3126 3125 3125 3124 3123 3122 3121 3120 3119 3118 3117 3114 3113 3112 3111 3110 3109 3109 3109 3108 3106 3105 3105 3105 3105 3104 3104 3100 3095 3091 3089 3088 3086 3085 3083 3075 3067 3065 3064 3062 3061 3059 3058 3058 3057 3056 3054 3052 3050 3050 3049 3048
3143 3142 3142 3141 3141 3140 3140 3140 3140 3140 3140 3140 3140 3140 3140 3140 3139 3139 3139 3139 3138 3138 3137 3137 3136 3135 3135 3134 3133 3133 3132 3131 3129 3128 3127 3127 3126 3126 3125 3124 3123 3122 3121 3120 3119 3118 3116 3114 3113 3112 3110 3109 3108 3108 3107 3106 3106 3104 3103 3104 3103 3103 3103 3100 3096 3093 3092 3090 3085 3081 3075 3068 3064 3062 3059 3059 3058 3057 3057 3056 3055 3053 3051 3049 3048 3047 3047 3045
3142 3142 3141 3141 3140 3140 3140 3140 3140 3140 3140 3140 3140 3140 3140 3140 3139 3139 3139 3139 3138 3138 3137 3137 3136 3136 3135 3134 3133 3133 3132 3131 3130 3129 3128 3127 3127 3126 3125 3124 3123 3122 3121 3120 3120 3118 3116 3114 3112 3111 3110 3108 3107 3106 3106 3106 3105 3103 3103 3103 3101 3101 3101 3099 3095 3093 3093 3090 3081 3075 3069 3063 3061 3058 3054 3056 3055 3054 3055 3053 3052 3050 3048 3047 3046 3045 3044 3042
3142 3141 3140 3140 3140 3140 3140 3140 3140 3140 3140 3140 3140 3140 3140 3140 3140 3139 3139 3139 3138 3138 3137 3137 3137 3136 3135 3135 3134 3133 3132 3131 3130 3129 3128 3128 3127 3126 3125 3124 3123 3122 3121 3120 3119 3118 3117 3113 3110 3110 3109 3107 3107 3105 3104 3104 3104 3103 3102 3101 3100 3099 3098 3098 3096 3092 3090 3085 3075 3072 3068 3062 3060 3057 3052 3053 3053 3051 3051 3049 3048 3047 3045 3044 3043 3042 3041 3039
3141 3140 3140 3140 3140 3140 3139 3140 3140 3139 3140 3140 3140 3140 3140 3140 3140 3139 3139 3139 3139 3138 3138 3137 3137 3136 3136 3135 3134 3133 3132 3131 3130 3130 3129 3128 3127 3126 3125 3123 3123 3121 3120 3120 3118 3117 3117 3113 3108 3108 3107 3106 3105 3104 3102 3101 3101 3101 3100 3099 3099 3099 3097 3097 3097 3092 3088 3083 3073 3069 3068 3060 3055 3053 3050 3050 3050 3048 3048 3046 3044 3043 3042 3040 3039 3038 3037 3035
3140 3140 3139 3139 3139 3139 3139 3139 3139 3140 3140 3140 3140 3140 3140 3140 3140 3140 3139 3139 3139 3138 3138 3137 3137 3136 3136 3135 3134 3133 3132 3131 3130 3130 3129 3128 3126 3125 3124 3123 3122 3121 3119 3119 3117 3116 3116 3114 3109 3106 3106 3106 3103 3102 3101 3099 3098 3098 3097 3097 3097 3097 3097 3095 3095 3092 3089 3085 3075 3069 3066 3055 3048 3048 3048 3048 3048 3046 3045 3044 3042 3040 3038 3037 3035 3033 3032 3030
3140 3139 3139 3139 3139 3139 3139 3139 3139 3140 3140 3140 3140 3140 3140 3140 3140 3140 3140 3139 3139 3138 3138 3138 3137 3136 3136 3135 3134 3133 3132 3131 3130 3129 3128 3127 3126 3125 3124 3122 3121 3120 3119 3118 3117 3115 3114 3114 3111 3106 3104 3104 3101 3100 3100 3098 3097 3096 3095 3095 3094 3094 3095 3093 3090 3088 3087 3085 3078 3072 3064 3048 3041 3045 3046 3045 3045 3044 3043 3041 3039 3037 3035 3033 3031 3029 3027 3025
3139 3139 3139 3139 3139 3139 3139 3139 3139 3140 3140 3140 3140 3140 3140 3140 3140 3140 3140 3139 3139 3139 3138 3138 3137 3136 3136 3135 3134 3133 3132 3131 3130 3129 3128 3127 3125 3124 3123 3121 3120 3119 3117 3116 3115 3114 3113 3112 3109 3105 3103 3102 3100 3098 3097 3096 3096 3094 3093 3093 3092 3091 3093 3091 3087 3083 3084 3084 3078 3074 3065 3041 3032 3041 3043 3042 3043 3041 3039 3038 3035 3033 3031 3028 3027 3025 3023 3021
3139 3139 3139 3139 3139 3139 3139 3139 3139 3140 3140 3140 3140 3140 3140 3140 3140 3140 3140 3140 3139 3139 3138 3138 3137 3136 3135 3134 3133 3132 3131 3130 3129 3128 3127 3126 3125 3123 3122 3120 3119 3118 3116 3115 3114 3113 3112 3110 3107 3103 3101 3100 3098 3096 3094 3093 3093 3092 3091 3091 3090 3090 3089 3089 3087 3081 3081 3080 3074 3076 3068 3037 3025 3037 3040 3038 3040 3038 3036 3035 3032 3029 3027 3025 3023 3021 3019 3017
3138 3138 3139 3139 3139 3139 3139 3139 3139 3140 3140 3140 3140 3140 3141 3141 3141 3140 3140 3140 3139 3139 3138 3137 3137 3136 3135 3134 3133 3132 3131 3129 3128 3127 3126 3125 3124 3122 3121 3119 3118 3116 3115 3113 3112 3111 3110 3108 3105 3101 3098 3096 3094 3093 3092 3091 3090 3089 3087 3087 3087 3086 3085 3086 3085 3081 3080 3075 3070 3075 3063 3030 3021 3033 3035 3034 3036 3035 3034 3032 3028 3026 3023 3021 3019 3017 3015 3013
3138 3139 3139 3139 3139 3139 3139 3139 3140 3140 3140 3141 3141 3141 3141 3141 3141 3140 3140 3140 3139 3138 3138 3137 3136 3135 3134 3133 3132 3131 3130 3129 3127 3126 3125 3124 3122 3121 3119 3118 3116 3115 3113 3112 3111 3110 3109 3107 3105 3102 3097 3094 3091 3090 3090 3089 3088 3086 3083 3083 3082 3081 3083 3082 3080 3081 3077 3065 3064 3070 3052 3025 3022 3030 3030 3031 3032 3030 3030 3028 3024 3021 3019 3017 3015 3012 3012 3010
3138 3139 3139 3139 3139 3139 3140 3140 3140 3140 3141 3141 3141 3141 3141 3141 3141 3140 3140 3139 3139 3138 3137 3137 3136 3135 3134 3133 3132 3131 3130 3128 3127 3125 3124 3122 3121 3119 3118 3116 3115 3113 3112 3110 3109 3108 3107 3105 3104 3103 3100 3096 3091 3090 3089 3088 3086 3083 3080 3078 3076 3077 3079 3078 3078 3080 3070 3056 3058 3059 3039 3021 3023 3029 3029 3030 3029 3027 3026 3024 3021 3019 3016 3013 3011 3008 3007 3005
3139 3139 3139 3139 3139 3140 3140 3140 3140 3140 3140 3141 3141 3141 3141 3141 3140 3140 3140 3139 3138 3138 3137 3136 3135 3134 3133 3132 3131 3130 3129 3127 3126 3124 3123 3121 3119 3118 3116 3115 3113 3111 3110 3108 3106 3106 3104 3101 3100 3101 3098 3094 3090 3089 3088 3086 3083 3080 3077 3074 3072 3072 3073 3074 3076 3071 3060 3054 3050 3042 3032 3024 3020 3024 3027 3027 3026 3025 3022 3020 3018 3015 3013 3011 3008 3005 3002 3000
3139 3139 3139 3139 3139 3140 3140 3140 3140 3141 3141 3141 3141 3141 3141 3141 3140 3140 3139 3139 3138 3137 3136 3135 3134 3133 3132 3131 3130 3128 3127 3126 3125 3123 3121 3120 3118 3116 3115 3112 3111 3109 3107 3106 3104 3103 3101 3097 3096 3095 3093 3089 3086 3085 3084 3083 3079 3075 3073 3070 3068 3068 3067 3068 3066 3056 3054 3056 3042 3027 3031 3030 3018 3018 3024 3023 3022 3021 3018 3016 3013 3010 3009 3007 3004 3001 2999 2996
3138 3139 3139 3139 3139 3139 3140 3140 3141 3141 3141 3141 3140 3141 3140 3140 3140 3139 3139 3138 3137 3137 3136 3134 3134 3132 3131 3130 3129 3127 3126 3124 3123 3121 3120 3118 3116 3115 3112 3110 3109 3106 3105 3104 3102 3100 3098 3094 3091 3091 3089 3085 3083 3081 3080 3079 3075 3071 3068 3065 3064 3063 3061 3058 3054 3048 3051 3052 3034 3022 3029 3027 3018 3019 3021 3019 3019 3017 3013 3012 3009 3006 3005 3002 2999 2997 2994 2992
3138 3138 3139 3139 3139 3139 3140 3140 3141 3141 3141 3141 3140 3140 3140 3140 3140 3139 3138 3137 3137 3136 3135 3133 3133 3131 3130 3129 3127 3126 3125 3123 3121 3119 3118 3116 3115 3113 3110 3108 3106 3104 3102 3101 3099 3098 3096 3091 3087 3087 3084 3081 3080 3078 3076 3074 3070 3066 3062 3059 3059 3058 3054 3050 3045 3044 3046 3041 3029 3025 3025 3018 3016 3019 3017 3015 3015 3012 3008 3007 3004 3002 3000 2997 2995 2992 2989 2987
3138 3138 3139 3139 3139 3140 3140 3140 3140 3140 3141 3141 3140 3140 3140 3140 3139 3138 3137 3137 3135 3135 3134 3132 3131 3130 3129 3128 3126 3125 3123 3121 3119 3118 3116 3114 3112 3110 3108 3106 3104 3102 3100 3098 3096 3095 3093 3088 3085 3084 3081 3077 3075 3074 3072 3070 3067 3062 3056 3053 3053 3052 3048 3045 3042 3041 3040 3034 3027 3026 3021 3013 3014 3017 3014 3011 3010 3006 3004 3002 2999 2997 2995 2993 2990 2987 2984 2982
3138 3138 3139 3139 3139 3140 3140 3140 3140 3140 3140 3140 3140 3140 3139 3139 3138 3137 3137 3136 3135 3133 3133 3131 3130 3129 3127 3126 3125 3123 3121 3120 3118 3116 3114 3112 3110 3108 3106 3103 3101 3099 3096 3095 3093 3091 3090 3086 3082 3082 3078 3072 3070 3070 3068 3066 3064 3057 3050 3048 3049 3047 3044 3042 3039 3037 3036 3031 3025 3024 3019 3012 3012 3013 3011 3008 3006 3004 3001 2999 2996 2993 2992 2990 2987 2983 2980 2977
3138 3138 3139 3139 3139 3140 3140 3140 3140 3140 3140 3140 3139 3139 3139 3138 3138 3137 3135 3134 3133 3132 3131 3130 3129 3127 3126 3124 3123 3121 3120 3118 3116 3114 3112 3110 3108 3106 3104 3101 3099 3096 3093 3092 3089 3087 3086 3083 3081 3081 3077 3069 3068 3067 3064 3064 3061 3052 3046 3045 3045 3044 3041 3038 3035 3034 3033 3029 3024 3020 3016 3012 3012 3011 3007 3003 3002 3000 2997 2995 2992 2989 2987 2985 2982 2979 2976 2972